TimeEST,TemperatureF,Dew PointF,Humidity,Sea Level PressureIn,VisibilityMPH,Wind Direction,Wind SpeedMPH,Gust SpeedMPH,PrecipitationIn,Events,Conditions,WindDirDegrees,DateUTC
12:41 AM,48.2,48.2,100,30.26,2.0,Calm,Calm,-,N/A,,Clear,0,2011-11-08 05:41:00
12:50 AM,48.2,48.2,100,30.26,10.0,Calm,Calm,-,N/A,,Clear,0,2011-11-08 05:50:00
12:53 AM,48.0,46.9,96,30.25,10.0,Calm,Calm,-,N/A,,Clear,0,2011-11-08 05:53:00
1:53 AM,48.0,46.0,93,30.25,10.0,Calm,Calm,-,N/A,,Clear,0,2011-11-08 06:53:00
2:53 AM,48.0,46.0,93,30.24,10.0,Calm,Calm,-,N/A,,Clear,0,2011-11-08 07:53:00
3:53 AM,46.0,45.0,96,30.24,10.0,Calm,Calm,-,N/A,,Clear,0,2011-11-08 08:53:00
4:53 AM,46.0,44.1,93,30.24,9.0,Calm,Calm,-,N/A,,Clear,0,2011-11-08 09:53:00
5:53 AM,44.1,44.1,100,30.25,9.0,Calm,Calm,-,N/A,,Clear,0,2011-11-08 10:53:00
6:53 AM,46.0,44.1,93,30.26,8.0,Calm,Calm,-,N/A,,Clear,0,2011-11-08 11:53:00
7:53 AM,48.9,46.9,93,30.27,9.0,Calm,Calm,-,N/A,,Clear,0,2011-11-08 12:53:00
9:53 AM,64.9,53.1,65,30.26,10.0,NE,6.9,-,N/A,,Clear,50,2011-11-08 14:53:00
10:53 AM,69.1,53.1,57,30.25,10.0,ENE,6.9,-,N/A,,Clear,60,2011-11-08 15:53:00
11:53 AM,71.1,53.1,53,30.23,10.0,East,5.8,-,N/A,,Clear,90,2011-11-08 16:53:00
12:53 PM,72.0,52.0,49,30.20,10.0,Calm,Calm,-,N/A,,Clear,0,2011-11-08 17:53:00
1:53 PM,73.9,53.1,48,30.18,10.0,ENE,8.1,-,N/A,,Partly Cloudy,70,2011-11-08 18:53:00
2:53 PM,73.0,53.1,49,30.17,10.0,NNE,5.8,-,N/A,,Clear,30,2011-11-08 19:53:00
3:53 PM,73.0,53.1,49,30.17,10.0,NE,4.6,-,N/A,,Clear,50,2011-11-08 20:53:00
4:53 PM,70.0,53.1,55,30.16,10.0,Calm,Calm,-,N/A,,Clear,0,2011-11-08 21:53:00
6:53 PM,57.9,54.0,87,30.18,9.0,Calm,Calm,-,N/A,,Clear,0,2011-11-08 23:53:00
7:53 PM,55.0,53.1,93,30.18,9.0,Calm,Calm,-,N/A,,Clear,0,2011-11-09 00:53:00
8:53 PM,54.0,52.0,93,30.18,7.0,Calm,Calm,-,N/A,,Clear,0,2011-11-09 01:53:00
9:53 PM,53.1,51.1,93,30.18,5.0,Calm,Calm,-,N/A,,Clear,0,2011-11-09 02:53:00
10:53 PM,51.1,50.0,96,30.17,9.0,Calm,Calm,-,N/A,,Clear,0,2011-11-09 03:53:00
11:27 PM,50.0,48.2,94,30.16,2.5,Calm,Calm,-,N/A,,Clear,0,2011-11-09 04:27:00
11:34 PM,50.0,48.2,94,30.16,4.0,Calm,Calm,-,N/A,,Clear,0,2011-11-09 04:34:00
11:41 PM,50.0,48.2,94,30.16,1.5,Calm,Calm,-,N/A,,Clear,0,2011-11-09 04:41:00
11:51 PM,48.2,48.2,100,30.16,0.5,Calm,Calm,-,N/A,Fog,Fog,0,2011-11-09 04:51:00
11:53 PM,48.9,48.0,97,30.16,0.5,Calm,Calm,-,N/A,Fog,Fog,0,2011-11-09 04:53:00